Lexington Weather

Lexington, Massachusetts, USA

39°F
3/2/2024 8:43am 
  • Lexington Conditions: Mostly cloudy
  • Temperature: 39.0°F / 3.9°CWarmer 1.6°F than last hour.
  • Dew Point: 33.1°FIncreased 1.3°Fsince last hour.
  • Relative Humidity: 79%Decreased 1.0% since last hour.
  • Wind: Calm, 10-min avg: Calm, gust: None
  • Barometer: 30.45 in Steady
  • Visibility: 10 miles
  • Rain Today: 0.00 in
  •   

Regional Weather Roundup
for Boston, MA

        
000
ASUS41 KBOX 261610
RWRBOX

REGIONAL WEATHER ROUNDUP
NATIONAL WEATHER SERVICE BOSTON/NORTON MA
1100 AM EST MON FEB 26 2024

NOTE:  "FAIR" INDICATES FEW OR NO CLOUDS BELOW 12,000 FEET WITH NO 
SIGNIFICANT WEATHER AND/OR OBSTRUCTIONS TO VISIBILITY.

MAZALL-261700-
EASTERN MASSACHUSETTS
  
CITY           SKY/WX    TMP DP  RH WIND       PRES   REMARKS
BOSTON         MOSUNNY   46  30  53 SW14      29.99F                  
BEVERLY        MOSUNNY   43  27  53 SW12      29.98F                  
LAWRENCE       MOSUNNY   43  25  49 SW10      29.98F                  
BEDFORD        MOSUNNY   44  26  49 SW10      29.97F                  
NORWOOD        SUNNY     46  31  55 SW10      30.00F                  
MARSHFIELD     MOSUNNY   45  34  65 SW12G21   30.00F                  
PLYMOUTH       MOSUNNY   42  37  82 SW12      30.00F                  
TAUNTON        MOSUNNY   46  35  65 SW12G20   30.01F                  
NEW BEDFORD    CLOUDY    43  37  79 SW10      30.03F                  
$$

MAZALL-261700-
CAPE COD AND THE ISLANDS
  
CITY           SKY/WX    TMP DP  RH WIND       PRES   REMARKS
FALMOUTH       MOSUNNY   41  37  87 SW21G31   30.03F WCI  32          
HYANNIS        LGT RAIN  41  33  73 SW20G32   30.02F WCI  32          
CHATHAM        CLOUDY    40  36  86 SW10G26   30.06S                  
PROVINCETOWN   LGT RAIN  40  39  97 SW17      30.03F WCI  31          
NANTUCKET      MOSUNNY   45  37  73 SW18      30.08S                  
MARTHAS VNYRD  CLOUDY    43  36  76 SW15      30.06F                  
$$
 
MAZALL-261700-
CENTRAL AND WESTERN MASSACHUSETTS
  
CITY           SKY/WX    TMP DP  RH WIND       PRES   REMARKS
WORCESTER      SUNNY     42  25  50 SW12      29.96F                  
FITCHBURG      SUNNY     47  24  40 W6        29.98F                  
ORANGE         SUNNY     41  24  51 S7        29.98F                  
SPRINGFIELD    MOSUNNY   42  23  46 SW9       29.98S                  
WESTFIELD      SUNNY     42  24  49 S9        30.00S                  
NORTH ADAMS    SUNNY     48  25  40 CALM      29.95F                  
PITTSFIELD     SUNNY     43  23  45 SW7       29.94S                  
$$
 
RIZALL-261700-
RHODE ISLAND
  
CITY           SKY/WX    TMP DP  RH WIND       PRES   REMARKS
PROVIDENCE     PTSUNNY   43  32  65 SW10      30.02F                  
NEWPORT        CLOUDY    41  35  79 SW9       30.03F                  
BLOCK ISLAND   LGT RAIN  41  38  89 SW16      30.06F                  
SMITHFIELD     MOSUNNY   42  33  70 MISG        N/A                   
WESTERLY       LGT RAIN  41  36  82 SW6       30.04F                  
$$
 
CTZALL-261700-
CONNECTICUT
  
CITY           SKY/WX    TMP DP  RH WIND       PRES   REMARKS
BRADLEY INTL   MOSUNNY   43  28  55 S10       30.01S                  
HARTFORD       SUNNY     42  30  62 S9        30.03S                  
PLAINVILLE     FAIR      40  31  67 S10       30.02S                  
BRIDGEPORT     MOSUNNY   42  35  76 W9        30.06R                  
DANBURY        MOSUNNY   43  30  60 SW10      30.04R                  
GROTON         CLOUDY    42  38  85 W7        30.05S                  
NEW HAVEN      MOSUNNY   43  36  76 W8        30.05S                  
CHESTER        MOSUNNY   43  36  75 SW10G16   30.03R                  
MERIDEN        MOSUNNY   41  31  67 VRB6      30.04S                  
WILLIMANTIC    SUNNY     41  32  70 SW7       30.04R                  
OXFORD         SUNNY     38  30  73 SW7       30.03R                  
$$

MEZ002-015-021-024-NHZ003-005-008-011-012-014-VTZ005-008-261700-
NORTHERN NEW ENGLAND
  
CITY           SKY/WX    TMP DP  RH WIND       PRES   REMARKS
PORTLAND ME    PTSUNNY   38  23  55 SW9       29.95F WCI  31          
BANGOR ME      CLOUDY    31  25  78 S8        29.92F WCI  23          
CONCORD NH     MOSUNNY   42  24  49 VRB5      29.95                   
MANCHESTER NH  PTSUNNY   42  23  46 S12       29.95F                  
NASHUA NH      CLOUDY    43  23  45 VRB5      29.98S                  
PORTSMOUTH NH  PTSUNNY   43  23  44 W8        29.95F                  
JAFFREY NH     PTSUNNY   41  23  48 S7        29.95R                  
KEENE NH       MOSUNNY   42  24  49 S7        29.96F                  
BURLINGTON VT  PTSUNNY   45  23  42 SW14      29.89S                  
MT. WASHINGTON SNOW      18  18 100 W53         N/A  VSB 0   WCI  -7  
$$

NYZ052-076-261700-
EASTERN NEW YORK
  
CITY           SKY/WX    TMP DP  RH WIND       PRES   REMARKS
ALBANY         MOSUNNY   46  22  38 S10       29.97F                  
NEW YORK CITY  CLOUDY    43  30  60 S12       30.03F                  
$$
 
ANZALL-261700-
MARINE OBSERVATIONS
  
STATION/POSITION TIME  TEMP    WIND        PRES    VSBY  WAVE
                       AIR SEA DIR/SP/G                  HT/PER
                 (UTC) (F)     (DEG/KT/KT) (MB)    (MI)  (FT/S)
BOSTON BUOY      1550   40 39  230/ 14/ 16 1015.3F         3/10
BUZZARDS BAY     1500   40     230/ 19/ 21 1018.6R
NANTUCKET SOUND  1550   40 37  220/ 16/ 17 1017.7F         2/ 2
MASS BAY-STELLWA 1404   38 39  230/ 17/ 21 1016.0F  1 7/8  4/ 4
ISLE OF SHOALS   1500   37     220/ 11/ 11 1014.6F
S OF BLOCK IS    1556      40                N/A           5/ 6
$$

......................KEY.........................
  SKY/WX - SKY CONDITION/PRESENT WEATHER
  TMP    - TEMPERATURE IN FAHRENHEIT
  DWPT   - DEWPOINT IN FAHRENHEIT
  RH     - RELATIVE HUMIDITY IN PERCENT
  WIND   - DIRECTION AND SPEED IN MPH
  PRES   - MEAN SEA LEVEL PRESSURE IN INCHES OF HG
  WCI    - WIND CHILL INDEX
  VSB    - VISIBILITY IN MILES
  HX     - HEAT INDEX
  TC     - TEMPERATURE IN CELSIUS
  VRB    - VARIABLE WIND DIRECTION
  N/A    - NOT AVAILABLE
  
      

Other recent Regional Weather Roundups

Sat Mar 2, 8:10am EST

Sat Mar 2, 7:10am EST

Sat Mar 2, 6:10am EST

Sat Mar 2, 5:10am EST

Sat Mar 2, 4:10am EST

Sat Mar 2, 3:10am EST

Sat Mar 2, 2:10am EST

Sat Mar 2, 1:10am EST

Sat Mar 2, 12:10am EST

Fri Mar 1, 11:10pm EST

Fri Mar 1, 10:10pm EST

Fri Mar 1, 9:10pm EST

Fri Mar 1, 8:10pm EST

Fri Mar 1, 7:10pm EST

Fri Mar 1, 6:10pm EST

Fri Mar 1, 5:10pm EST

Fri Mar 1, 4:10pm EST

Fri Mar 1, 3:10pm EST

Fri Mar 1, 2:10pm EST

Fri Mar 1, 1:10pm EST

Fri Mar 1, 12:10pm EST

Fri Mar 1, 11:10am EST

Fri Mar 1, 10:10am EST

Fri Mar 1, 9:10am EST

Fri Mar 1, 8:10am EST

Fri Mar 1, 7:10am EST

Fri Mar 1, 6:10am EST

Fri Mar 1, 5:10am EST

Fri Mar 1, 4:10am EST

Fri Mar 1, 3:10am EST

Fri Mar 1, 2:10am EST

Fri Mar 1, 1:10am EST

Fri Mar 1, 12:10am EST

Thu Feb 29, 11:10pm EST

Thu Feb 29, 10:10pm EST

Thu Feb 29, 9:10pm EST

Thu Feb 29, 8:10pm EST

Thu Feb 29, 7:10pm EST

Thu Feb 29, 6:10pm EST

Thu Feb 29, 5:10pm EST

Thu Feb 29, 4:10pm EST

Thu Feb 29, 3:10pm EST

Thu Feb 29, 2:10pm EST

Thu Feb 29, 1:10pm EST

Thu Feb 29, 12:10pm EST

Thu Feb 29, 11:10am EST

Thu Feb 29, 10:10am EST

Thu Feb 29, 9:10am EST

Thu Feb 29, 8:10am EST

Thu Feb 29, 7:10am EST

Thu Feb 29, 6:10am EST

Thu Feb 29, 5:10am EST

Thu Feb 29, 4:10am EST

Thu Feb 29, 3:10am EST

Thu Feb 29, 2:10am EST

Thu Feb 29, 1:10am EST

Thu Feb 29, 12:10am EST

Wed Feb 28, 11:10pm EST

Wed Feb 28, 10:10pm EST

Wed Feb 28, 9:10pm EST

Wed Feb 28, 8:10pm EST

Wed Feb 28, 7:10pm EST

Wed Feb 28, 6:10pm EST

Wed Feb 28, 5:10pm EST

Wed Feb 28, 4:10pm EST

Wed Feb 28, 3:10pm EST

Wed Feb 28, 2:10pm EST

Wed Feb 28, 1:10pm EST

Wed Feb 28, 12:10pm EST

Wed Feb 28, 11:10am EST

Wed Feb 28, 10:10am EST

Wed Feb 28, 9:10am EST

Wed Feb 28, 8:10am EST

Wed Feb 28, 7:10am EST

Wed Feb 28, 6:10am EST

Wed Feb 28, 5:10am EST

Wed Feb 28, 4:10am EST

Wed Feb 28, 3:10am EST

Wed Feb 28, 2:10am EST

Wed Feb 28, 1:10am EST

Wed Feb 28, 12:10am EST

Tue Feb 27, 11:10pm EST

Tue Feb 27, 10:10pm EST

Tue Feb 27, 9:10pm EST

Tue Feb 27, 8:10pm EST

Tue Feb 27, 7:10pm EST

Tue Feb 27, 6:10pm EST

Tue Feb 27, 5:10pm EST

Tue Feb 27, 4:10pm EST

Tue Feb 27, 3:10pm EST

Tue Feb 27, 2:10pm EST

Tue Feb 27, 1:10pm EST

Tue Feb 27, 12:10pm EST

Tue Feb 27, 11:10am EST

Tue Feb 27, 10:10am EST

Tue Feb 27, 9:10am EST

Tue Feb 27, 8:10am EST

Tue Feb 27, 7:10am EST

Tue Feb 27, 6:10am EST

Tue Feb 27, 5:10am EST

Tue Feb 27, 4:10am EST

Tue Feb 27, 3:10am EST

Tue Feb 27, 2:10am EST

Tue Feb 27, 1:10am EST

Tue Feb 27, 12:10am EST

Mon Feb 26, 11:10pm EST

Mon Feb 26, 10:10pm EST

Mon Feb 26, 9:10pm EST

Mon Feb 26, 8:10pm EST

Mon Feb 26, 7:10pm EST

Mon Feb 26, 6:10pm EST

Mon Feb 26, 5:10pm EST

Mon Feb 26, 4:10pm EST

Mon Feb 26, 3:10pm EST

Mon Feb 26, 2:10pm EST

Mon Feb 26, 1:10pm EST

Mon Feb 26, 12:10pm EST

Mon Feb 26, 10:10am EST

Mon Feb 26, 9:10am EST

Mon Feb 26, 8:10am EST

Mon Feb 26, 7:10am EST

Mon Feb 26, 6:10am EST

Mon Feb 26, 5:10am EST

Mon Feb 26, 4:10am EST

Mon Feb 26, 3:10am EST

Mon Feb 26, 2:10am EST

Mon Feb 26, 1:10am EST

Mon Feb 26, 12:10am EST

Sun Feb 25, 11:10pm EST

Sun Feb 25, 10:10pm EST

Sun Feb 25, 9:10pm EST

Sun Feb 25, 8:10pm EST

Sun Feb 25, 7:10pm EST

Sun Feb 25, 6:10pm EST

Sun Feb 25, 5:10pm EST

Sun Feb 25, 4:10pm EST

Sun Feb 25, 3:10pm EST

Sun Feb 25, 2:10pm EST

Sun Feb 25, 1:10pm EST

Sun Feb 25, 12:10pm EST

Sun Feb 25, 11:10am EST

Sun Feb 25, 10:10am EST

Sun Feb 25, 9:10am EST

Sun Feb 25, 8:10am EST

Sun Feb 25, 7:10am EST

Sun Feb 25, 6:10am EST

Sun Feb 25, 5:10am EST

Sun Feb 25, 4:10am EST

Sun Feb 25, 3:10am EST

Sun Feb 25, 2:10am EST

Sun Feb 25, 1:10am EST

Sun Feb 25, 12:10am EST

Sat Feb 24, 11:10pm EST

Sat Feb 24, 10:10pm EST

Sat Feb 24, 9:10pm EST

Sat Feb 24, 8:10pm EST

Sat Feb 24, 7:10pm EST

Sat Feb 24, 6:10pm EST

Sat Feb 24, 5:10pm EST

Sat Feb 24, 4:10pm EST

Sat Feb 24, 3:10pm EST

Sat Feb 24, 2:10pm EST

Sat Feb 24, 1:10pm EST

Sat Feb 24, 12:10pm EST

Sat Feb 24, 11:10am EST

Sat Feb 24, 10:10am EST

Sat Feb 24, 9:10am EST